Regional Weather Roundup
Issued by NWS Albany, NY

Home | Current Version | Previous Version | Text Only | Print | Product List | Glossary On
Versions: 1 2 3 4 5 6 7 8 9 10 11 12 13 14 15 16 17 18 19 20 21 22 23 24 25 26 27 28 29 30 31 32 33 34 35 36 37 38 39 40 41 42 43 44 45 46 47 48 49 50
000
ASUS41 KALY 210010
RWRALY

NEW YORK STATE HOURLY WEATHER ROUNDUP
NATIONAL WEATHER SERVICE ALBANY NY
700 PM EST SAT JAN 20 2018

NOTE: "FAIR" INDICATES FEW OR NO CLOUDS BELOW 12,000 FEET WITH NO
SIGNIFICANT WEATHER AND/OR NO OBSTRUCTIONS TO VISIBILITY.

NYZ032-033-038>043-046>054-057>066-NYZ062>081-082-084-210100-
EAST


CITY           SKY/WX    TMP DP  RH WIND       PRES   REMARKS
ALBANY         MOCLDY    42  27  55 NW7       29.96R
GLENS FALLS    FAIR      31  27  85 SW5       29.92R WCI  26
POUGHKEEPSIE   FAIR      41  26  55 SW5       29.96R
NEWBURGH       MOCLDY    41  28  60 W6        29.97R
MONTGOMERY     FAIR      40  26  57 SW3       29.96R
WHITE PLAINS   FAIR      44  26  49 W12       29.95R
ISLIP          FAIR      45  27  49 W6        29.95R
NEW YORK CITY  MOCLDY    48  26  42 W14       29.97R
CENTRAL PARK   FAIR      47  27  45 W8        30.00R
$$

NYZ005>009-017-018-044>046-055-056-210100-
CENTRAL


CITY           SKY/WX    TMP DP  RH WIND       PRES   REMARKS
FULTON         FAIR      39  27  62 W14       29.98R WCI  31
SYRACUSE       FAIR      36  28  73 SW3       29.97R
ROME           FAIR      35  28  75 NW6       29.99R WCI  30
ELMIRA         FAIR      33  27  78 CALM      29.98R
BINGHAMTON     FAIR      38  25  59 W6        29.95R WCI  33
MONTICELLO     FAIR      34  25  69 W6        29.96R WCI  29
$$

NYZ026>034-041>043-087-210100-
NORTH


CITY           SKY/WX    TMP DP  RH WIND       PRES   REMARKS
WATERTOWN      FAIR      36  32  85 SW13      29.95R WCI  27
FORT DRUM      NOT AVBL
OGDENSBURG     FAIR      37  32  81 SW10      29.89S WCI  30
MASSENA        CLOUDY    38  32  79 SW15      29.88R WCI  29
SARANAC LAKE   MOCLDY    33  29  85 SW12      29.84R WCI  24
PLATTSBURGH    MOCLDY    38  28  67 SE6       29.84R WCI  33
$$

NYZ001>004-010>016-019>021-085-210100-
WEST


CITY           SKY/WX    TMP DP  RH WIND       PRES   REMARKS
NIAGARA FALLS  FAIR      35  27  72 SW10      29.99R WCI  27
BUFFALO        FAIR      33  29  85 SW12      30.01R WCI  24
DUNKIRK        FAIR      48  28  46 SW8       30.04R
WELLSVILLE     FAIR      40  26  57 W13       29.98R WCI  32
ROCHESTER      MOCLDY    37  29  72 W14       29.99R WCI  28
PENN YAN       FAIR      38  25  59 W3        29.98R
$$

             KEY
       WCI = WIND CHILL INDEX
       VSB = VISIBILITY
       HX  = HEAT INDEX
$$



USA.gov is the U.S. government's official web portal to all federal, state and local government web resources and services.